Weather Roundup
Issued by NWS Chicago, IL

Home | Current Version | Previous Version | Graphics & Text | Print | Product List | Glossary On
Versions: 1 2 3 4 5 6 7 8 9 10 11 12 13 14 15 16 17 18 19 20 21 22 23 24 25 26 27 28 29 30 31 32 33 34 35 36 37 38 39 40 41 42 43 44 45 46 47 48 49 50
000
NZUS59 KLOT 040900
HRRLOT

CHICAGO AREA WEATHER ROUNDUP
NATIONAL WEATHER SERVICE CHICAGO/ROMEOVILLE IL
300 AM CST WED MAR 04 2015

NOTE: "FAIR" INDICATES FEW OR NO CLOUDS BELOW 12,000 FEET WITH NO
SIGNIFICANT WEATHER AND/OR OBSTRUCTIONS TO VISIBILITY.

* THESE STATIONS ARE NOT UNDER NWS QUALITY CONTROL. THEY ALSO MAY NOT
  REPORT WEATHER SUCH AS PRECIPITATION OR FOG.

ILZ005-006-012>014-019>023-041000-
NORTHEAST ILLINOIS

CITY           SKY/WX    TMP DP  RH WIND       PRES   REMARKS
OHARE          MOCLDY    27  21  78 W16       29.89R WCI  15
MIDWAY         CLOUDY    31  22  69 W7        29.89S WCI  24
AURORA         PTCLDY    22  15  75 W20       29.92R WCI   7
LANSING*       CLOUDY    31  25  76 NW7       29.90R WCI  25
WAUKEGAN       CLOUDY    26  20  77 W8        29.88R WCI  18
DUPAGE AIRPORT PTCLDY    24  18  77 W14       29.90R WCI  12
WHEELING       PTCLDY    27  21  78 W14       29.91R WCI  16
NORTHERLY IS     N/A     31  22  69 W8          N/A  WCI  24
$$

WIZ051-052-058>065-066-070>072-041000-
SOUTHEAST WISCONSIN

CITY           SKY/WX    TMP DP  RH WIND       PRES   REMARKS
MILWAUKEE      PTCLDY    24  12  60 NW16G26   29.88R WCI  11
KENOSHA*       MOCLDY    22  17  81 W7        29.88R WCI  13
RACINE*        PTCLDY    26  16  65 NW7       29.89R WCI  18
$$

INZ001>003-010>013-019-020-041000-
NORTHWEST INDIANA

CITY           SKY/WX    TMP DP  RH WIND       PRES   REMARKS
GARY*          MOCLDY    32  21  63 W9        29.90R WCI  24
MICHIGAN CITY* NOT AVBL
RENSSELAER*    NOT AVBL
$$

LMZ740>746-041000-
SOUTHERN LAKE MICHIGAN

STATION/POSITION TIME  SKY/WX   TEMP WIND        PRES    VSBY
                                AIR  DIR/SP/G
                 (UTC)          (F)  (DEG/KT/KT) (MB)    (MI)
HARRISON CRIB    0800            31  280/ 14/ 17   N/A
BURNHAM HARBOR   0900            31  250/  7/ 11   N/A
CALUMET HARBOR   0800            31  260/  6/  9 1010.9F
BURNS HARBOR     NOT AVBL
MICHIGAN CITY    0800            31  250/ 10/ 11   N/A
$$

ABBREVIATIONS USED IN REMARKS
   TC - TEMPERATURE IN CELSIUS
  WCI - WIND CHILL INDEX
   HX - HEAT INDEX
  VSB - VISIBILITY
$$



USA.gov is the U.S. government's official web portal to all federal, state and local government web resources and services.